Regional Weather Roundup
Issued by NWS

Home | Current Version | Previous Version | Text Only | Print | Product List | Glossary Off
Versions: 1 2 3 4 5 6 7 8 9 10 11 12 13 14 15 16 17 18 19 20 21 22 23 24 25 26 27 28 29 30 31 32 33 34 35 36 37 38 39 40 41 42 43 44 45 46 47 48 49 50

000
ASUS43 KDMX 111301
RWRIA

WEATHER ROUNDUP FOR IOWA
NATIONAL WEATHER SERVICE DES MOINES IA
700 AM CST SUN DEC 11 2016

NOTE: "FAIR" INDICATES FEW OR NO CLOUDS BELOW 12,000 FEET WITH NO
SIGNIFICANT WEATHER AND/OR OBSTRUCTIONS TO VISIBILITY.

* - THESE STATIONS ARE NOT NWS STATIONS...THUS NOT UNDER NWS
QUALITY CONTROL.  THEY ALSO DO NOT REPORT WEATHER SUCH
AS PRECIPITATION OR FOG.

IAZ001>003-012>014-020>022-031>034-043>046-111400-
   NORTHWEST IOWA

CITY           SKY/WX    TMP DP  RH WIND       PRES   REMARKS
CARROLL *      CLOUDY    27  25  93 SE7       29.78S WCI  19
CHEROKEE *     CLOUDY    25  23  91 CALM      29.80R
DENISON *      CLOUDY    28  23  80 SE3       29.76R
LE MARS *      CLOUDY    27  21  80 NE3       29.81R
ORANGE CITY *  CLOUDY    25  21  86 CALM      29.80R
SHELDON *      CLOUDY    23  23 100 E6        29.79R WCI  16
SIOUX CITY     CLOUDY    27  22  81 NW5       29.80R WCI  22
SPENCER        CLOUDY    23  21  92 VRB6      29.81F WCI  16
STORM LAKE *   CLOUDY    23  21  93 E7        29.77S WCI  15
$$

IAZ055>058-069>071-079>083-090>094-111400-
   SOUTHWEST IOWA

CITY           SKY/WX    TMP DP  RH WIND       PRES   REMARKS
ATLANTIC *     CLOUDY    32  27  80 CALM      29.78F
AUDUBON *      CLOUDY    28  25  86 SE3       29.78S
CLARINDA *     CLOUDY    36  25  64 CALM      29.80R
COUNCIL BLFS * CLOUDY    34  25  69 SE6       29.76S WCI  29
CRESTON *      CLOUDY    32  27  80 S9        29.80S WCI  24
HARLAN  *      CLOUDY    30  25  80 CALM      29.81R
LAMONI         CLOUDY    36  24  62 SE9       29.79S WCI  29
RED OAK *      CLOUDY    36  25  64 CALM      29.78R
SHENANDOAH *   CLOUDY    36  25  64 E5        29.78S WCI  32
$$

IAZ047>049-059>061-072>074-084-111400-
   CENTRAL IOWA

CITY           SKY/WX    TMP DP  RH WIND       PRES   REMARKS
AMES           CLOUDY    28  24  85 SE8       29.82F WCI  20
ANKENY *       CLOUDY    28  23  80 SE8       29.84F WCI  20
BOONE *        CLOUDY    27  23  86 E10       29.80F WCI  17
CHARITON *     CLOUDY    32  28  86 SE9       29.82F FOG     WCI  24
DES MOINES     FLURRIES  31  23  72 SE9       29.82F WCI  23
GRINNELL*      CLOUDY    28  24  86 SE6       29.87R WCI  22
KNOXVILLE *    CLOUDY    32  28  86 SE7       29.83S FOG     WCI  26
MARSHALLTOWN   CLOUDY    27  23  85 E9        29.86R WCI  18
NEWTON *       CLOUDY    28  25  86 SE10      29.85S WCI  19
PELLA *        CLOUDY    31  26  84 SE5       29.87S FOG     WCI  26
PERRY *        CLOUDY    28  26  91 E6        29.80F WCI  22
$$

IAZ004>006-015-016-023>025-035-036-111400-
   NORTH CENTRAL IOWA

CITY           SKY/WX    TMP DP  RH WIND       PRES   REMARKS
ALGONA *       CLOUDY    25  21  86 SE10      29.82F WCI  15
CLARION *      CLOUDY    25  23  93 SE18      29.81F WCI  11
ESTHERVILLE    CLOUDY    21  20  96 E7        29.83R WCI  12
FORT DODGE *   CLOUDY    25  19  80 SE8       29.80F WCI  16
MASON CITY     CLOUDY    22  19  89 SE10      29.86F WCI  11
WEBSTER CITY * CLOUDY    27  25  93 SE13      29.79F WCI  16
IOWA FALLS *   CLOUDY    26  23  89 E10       29.85F WCI  16
$$

IAZ007>011-017>019-026>030-037>042-050>054-066-111400-
   NORTHEAST IOWA

CITY           SKY/WX    TMP DP  RH WIND       PRES   REMARKS
CEDAR RAPIDS   CLOUDY    27  24  89 SE9       29.90F WCI  18
CHARLES CITY * MIX PCPN  23  21  93 SE13      29.89S WCI  11
CLINTON *      CLOUDY    27  24  89 SE14      29.95F WCI  16
DECORAH *      CLOUDY    21  21 100 E8        29.90F WCI  12
DUBUQUE        CLOUDY    24  22  91 SE9       29.93S WCI  14
MONTICELLO *   CLOUDY    27  23  86 E9        29.92F WCI  17
OELWEIN *      CLOUDY    25  23  93 SE14      29.90S WCI  13
WATERLOO       CLOUDY    25  21  85 SE15      29.86F WCI  13
$$

IAZ064-065-067-068-078-111400-
   EAST CENTRAL IOWA

CITY           SKY/WX    TMP DP  RH WIND       PRES   REMARKS
DAVENPORT      CLOUDY    29  23  78 SE12      29.94F WCI  19
IOWA CITY      CLOUDY    30  23  75 SE6       29.93S WCI  24
MUSCATINE *    CLOUDY    32  25  74 S13       29.93F WCI  22
QUAD CITIES    CLOUDY    31  23  72 E6        29.94F WCI  25
$$

IAZ062-063-075>077-085>089-095>099-111400-
   SOUTHEAST IOWA

CITY           SKY/WX    TMP DP  RH WIND       PRES   REMARKS
BURLINGTON     CLOUDY    34  26  72 S12       29.91F WCI  25
FAIRFIELD *    CLOUDY    32  25  74 S14       29.87F WCI  22
FORT MADISON * CLOUDY    34  25  69 S9        29.91F WCI  26
KEOKUK *       CLOUDY    36  23  60 SE8       29.89F WCI  29
OSKALOOSA *    CLOUDY    31  28  90 S8        29.88R FOG     WCI  23
CENTERVILLE *  CLOUDY    32  27  80 SE7       29.84S WCI  26
OTTUMWA        CLOUDY    31  26  82 S10       29.87S WCI  22
WASHINGTON *   CLOUDY    30  28  93 S9        29.91S FOG     WCI  22
$$

ABBREVIATIONS USED IN REMARKS
   TC - TEMPERATURES IN CELSIUS
  WCI - WIND CHILL INDEX
   HX - HEAT INDEX
  VSB - VISIBILITY
$$




USA.gov is the U.S. government's official web portal to all federal, state and local government web resources and services.